AAY1398 KTYS-KPHX

Flight info

Callsign AAY1398
Flight time 4h 5m
Altitude 36000
Route BNA J46 ARG DWINE IRW J78 ZUN EAGUL6
Aircraft A20N/M-SDE2E3FGHIRWXY/LB1

Departure

Time 2026-05-06 23:47
Airport McGhee Tyson Airport (KTYS)

Arrival

Time 2026-05-07 03:52
Airport Phoenix Sky Harbor International Airport (KPHX)
Time Latitude Longitude Altitude Speed Heading
2026-05-06 23:38 35.82252 -83.98827 983 ft 0 kts 45°
2026-05-06 23:40 35.82246 -83.98834 983 ft 2 kts 46°
2026-05-06 23:40 35.82235 -83.98849 979 ft 2 kts 49°
2026-05-06 23:41 35.82225 -83.98865 983 ft 2 kts 55°
2026-05-06 23:41 35.82218 -83.98883 980 ft 2 kts 87°
2026-05-06 23:41 35.82222 -83.98899 980 ft 1 kts 135°
2026-05-06 23:41 35.82223 -83.98900 980 ft 0 kts 135°
2026-05-06 23:43 35.82187 -83.98848 988 ft 13 kts 117°
2026-05-06 23:44 35.82206 -83.98758 978 ft 9 kts 45°
2026-05-06 23:44 35.82252 -83.98705 981 ft 12 kts 45°
2026-05-06 23:44 35.82314 -83.98605 972 ft 12 kts 86°
2026-05-06 23:44 35.82263 -83.98521 976 ft 14 kts 135°
2026-05-06 23:45 35.82252 -83.98506 971 ft 0 kts 134°
2026-05-06 23:45 35.82249 -83.98503 971 ft 5 kts 134°
2026-05-06 23:45 35.82203 -83.98449 971 ft 7 kts 154°
2026-05-06 23:46 35.82152 -83.98453 974 ft 9 kts 212°
2026-05-06 23:46 35.82012 -83.98620 979 ft 57 kts 224°
2026-05-06 23:46 35.81567 -83.99161 970 ft 123 kts 224°
2026-05-06 23:46 35.80811 -84.00075 1009 ft 173 kts 223°
2026-05-06 23:47 35.79988 -84.01123 1770 ft 168 kts 228°
2026-05-06 23:47 35.79472 -84.01887 2138 ft 181 kts 237°
2026-05-06 23:47 35.78944 -84.03301 2798 ft 187 kts 255°
2026-05-06 23:47 35.78969 -84.05624 3248 ft 226 kts 280°
2026-05-06 23:48 35.79225 -84.06940 3469 ft 240 kts 283°
2026-05-06 23:48 35.79724 -84.08912 3999 ft 247 kts 288°
2026-05-06 23:48 35.80473 -84.10866 4640 ft 251 kts 294°
2026-05-06 23:48 35.81216 -84.12787 4949 ft 252 kts 289°
2026-05-06 23:49 35.81782 -84.14819 4997 ft 249 kts 282°
2026-05-06 23:49 35.82108 -84.16905 5010 ft 248 kts 277°
2026-05-06 23:49 35.82354 -84.19027 5015 ft 251 kts 275°
2026-05-06 23:49 35.82584 -84.21183 5362 ft 256 kts 275°
2026-05-06 23:50 35.82826 -84.23350 6148 ft 255 kts 276°
2026-05-06 23:50 35.83378 -84.27661 7666 ft 255 kts 278°
2026-05-06 23:50 35.83678 -84.29815 8456 ft 255 kts 277°
2026-05-06 23:51 35.83982 -84.31985 9219 ft 258 kts 277°
2026-05-06 23:51 35.84288 -84.34179 9982 ft 260 kts 277°
2026-05-06 23:51 35.84591 -84.36391 10465 ft 273 kts 277°
2026-05-06 23:51 35.84913 -84.38774 10744 ft 291 kts 277°
2026-05-06 23:52 35.85254 -84.41316 11008 ft 309 kts 277°
2026-05-06 23:52 35.85613 -84.43992 11262 ft 324 kts 277°
2026-05-06 23:52 35.85990 -84.46792 11506 ft 337 kts 277°
2026-05-06 23:52 35.86379 -84.49678 11943 ft 343 kts 277°
2026-05-06 23:53 35.86773 -84.52588 12531 ft 344 kts 277°
2026-05-06 23:53 35.87167 -84.55503 13150 ft 345 kts 276°
2026-05-06 23:53 35.87558 -84.58418 13775 ft 345 kts 276°
2026-05-06 23:53 35.87950 -84.61343 14329 ft 345 kts 276°
2026-05-06 23:54 35.88339 -84.64257 14935 ft 343 kts 276°
2026-05-06 23:54 35.88726 -84.67152 15523 ft 342 kts 276°
2026-05-06 23:54 35.89111 -84.70042 16107 ft 341 kts 276°
2026-05-06 23:54 35.89493 -84.72925 16697 ft 340 kts 276°
2026-05-06 23:55 35.89875 -84.75809 17255 ft 340 kts 276°
2026-05-06 23:55 35.90253 -84.78677 17825 ft 339 kts 276°
2026-05-06 23:55 35.90629 -84.81539 18359 ft 338 kts 276°
2026-05-06 23:55 35.91000 -84.84375 18727 ft 341 kts 276°
2026-05-06 23:56 35.91386 -84.87316 19088 ft 345 kts 276°
2026-05-06 23:56 35.91765 -84.90210 19430 ft 348 kts 276°
2026-05-06 23:56 35.92151 -84.93172 19772 ft 351 kts 276°
2026-05-06 23:56 35.92540 -84.96163 20120 ft 354 kts 276°
2026-05-06 23:57 35.92929 -84.99163 20442 ft 357 kts 276°
2026-05-06 23:57 35.93324 -85.02201 20777 ft 359 kts 276°
2026-05-06 23:57 35.93719 -85.05255 21131 ft 362 kts 276°
2026-05-06 23:57 35.94118 -85.08331 21486 ft 364 kts 276°
2026-05-06 23:58 35.94519 -85.11436 21829 ft 367 kts 276°
2026-05-06 23:58 35.94921 -85.14564 22168 ft 370 kts 276°
2026-05-06 23:58 35.95326 -85.17713 22514 ft 373 kts 276°
2026-05-06 23:58 35.95733 -85.20891 22862 ft 376 kts 276°
2026-05-06 23:59 35.96143 -85.24090 23185 ft 379 kts 276°
2026-05-06 23:59 35.96555 -85.27310 23514 ft 381 kts 275°
2026-05-06 23:59 35.96968 -85.30555 23808 ft 384 kts 275°
2026-05-06 23:59 35.97377 -85.33768 24162 ft 384 kts 276°
2026-05-07 00:00 35.97793 -85.37029 24513 ft 384 kts 275°
2026-05-07 00:00 35.98206 -85.40283 24884 ft 384 kts 275°
2026-05-07 00:00 35.98618 -85.43543 25217 ft 384 kts 275°
2026-05-07 00:00 35.99030 -85.46814 25504 ft 386 kts 275°
2026-05-07 00:01 35.99441 -85.50095 25839 ft 387 kts 275°
2026-05-07 00:01 35.99853 -85.53381 26160 ft 387 kts 275°
2026-05-07 00:01 36.00264 -85.56659 26595 ft 384 kts 275°
2026-05-07 00:01 36.00670 -85.59897 27088 ft 380 kts 274°
2026-05-07 00:02 36.01071 -85.63108 27536 ft 376 kts 274°
2026-05-07 00:02 36.01469 -85.66297 27985 ft 373 kts 274°
2026-05-07 00:02 36.01862 -85.69458 28432 ft 371 kts 274°
2026-05-07 00:02 36.02249 -85.72587 28858 ft 368 kts 274°
2026-05-07 00:03 36.02634 -85.75709 29270 ft 366 kts 274°
2026-05-07 00:03 36.03015 -85.78802 29688 ft 363 kts 273°
2026-05-07 00:03 36.03392 -85.81873 30090 ft 361 kts 273°
2026-05-07 00:03 36.03766 -85.84925 30427 ft 358 kts 273°
2026-05-07 00:04 36.04133 -85.87926 30710 ft 357 kts 273°
2026-05-07 00:04 36.04503 -85.90951 31000 ft 356 kts 273°
2026-05-07 00:04 36.04870 -85.93976 31255 ft 355 kts 273°
2026-05-07 00:04 36.05235 -85.96980 31545 ft 354 kts 272°
2026-05-07 00:05 36.05598 -85.99974 31862 ft 352 kts 272°
2026-05-07 00:05 36.05961 -86.02958 32200 ft 350 kts 272°
2026-05-07 00:05 36.06319 -86.05915 32508 ft 348 kts 272°
2026-05-07 00:05 36.06675 -86.08864 32793 ft 346 kts 272°
2026-05-07 00:06 36.07028 -86.11801 33073 ft 345 kts 272°
2026-05-07 00:06 36.07380 -86.14734 33345 ft 344 kts 272°
2026-05-07 00:06 36.07729 -86.17655 33621 ft 342 kts 272°
2026-05-07 00:06 36.08077 -86.20564 33896 ft 341 kts 272°
2026-05-07 00:07 36.08422 -86.23455 34137 ft 340 kts 271°
2026-05-07 00:07 36.08765 -86.26335 34333 ft 338 kts 271°
2026-05-07 00:07 36.09107 -86.29210 34542 ft 337 kts 272°
2026-05-07 00:07 36.09447 -86.32077 34738 ft 336 kts 272°
2026-05-07 00:08 36.09785 -86.34933 34937 ft 335 kts 272°
2026-05-07 00:08 36.10122 -86.37781 35125 ft 334 kts 272°
2026-05-07 00:08 36.10456 -86.40613 35303 ft 333 kts 272°
2026-05-07 00:08 36.10789 -86.43450 35488 ft 332 kts 272°
2026-05-07 00:09 36.11120 -86.46268 35658 ft 331 kts 272°
2026-05-07 00:09 36.11449 -86.49082 35827 ft 330 kts 272°
2026-05-07 00:09 36.11777 -86.51890 35973 ft 330 kts 272°
2026-05-07 00:09 36.12100 -86.54672 36006 ft 332 kts 272°
2026-05-07 00:10 36.12758 -86.60357 36009 ft 334 kts 272°
2026-05-07 00:10 36.13418 -86.66047 36008 ft 333 kts 271°
2026-05-07 00:11 36.13724 -86.71717 36006 ft 329 kts 267°
2026-05-07 00:11 36.13817 -86.77374 36007 ft 329 kts 266°
2026-05-07 00:12 36.13868 -86.83029 36021 ft 328 kts 266°
2026-05-07 00:12 36.13915 -86.88677 36019 ft 328 kts 266°
2026-05-07 00:13 36.13965 -86.94329 36017 ft 328 kts 266°
2026-05-07 00:13 36.14016 -86.99943 36019 ft 328 kts 266°
2026-05-07 00:14 36.14065 -87.05590 36024 ft 328 kts 266°
2026-05-07 00:14 36.14112 -87.11231 36027 ft 328 kts 266°
2026-05-07 00:15 36.14154 -87.16881 36030 ft 328 kts 266°
2026-05-07 00:15 36.14195 -87.22535 36038 ft 328 kts 266°
2026-05-07 00:16 36.14232 -87.28169 36043 ft 327 kts 266°
2026-05-07 00:16 36.14267 -87.33798 36046 ft 327 kts 266°
2026-05-07 00:17 36.14300 -87.39425 36048 ft 327 kts 266°
2026-05-07 00:17 36.14329 -87.45047 36049 ft 327 kts 266°
2026-05-07 00:18 36.14357 -87.50629 36048 ft 326 kts 266°
2026-05-07 00:18 36.14381 -87.56285 36051 ft 326 kts 266°
2026-05-07 00:19 36.14402 -87.61858 36048 ft 326 kts 266°
2026-05-07 00:19 36.14422 -87.67479 36046 ft 326 kts 266°
2026-05-07 00:20 36.14438 -87.73095 36048 ft 326 kts 266°
2026-05-07 00:20 36.14452 -87.78703 36049 ft 326 kts 266°
2026-05-07 00:21 36.14464 -87.84313 36048 ft 326 kts 266°
2026-05-07 00:21 36.14474 -87.89926 36048 ft 326 kts 266°
2026-05-07 00:22 36.14480 -87.95533 36048 ft 326 kts 266°
2026-05-07 00:22 36.14483 -88.01142 36043 ft 326 kts 265°
2026-05-07 00:23 36.14484 -88.06742 36040 ft 326 kts 265°
2026-05-07 00:23 36.14482 -88.12350 36038 ft 326 kts 265°
2026-05-07 00:24 36.14477 -88.17917 36037 ft 326 kts 265°
2026-05-07 00:24 36.14469 -88.23516 36034 ft 326 kts 265°
2026-05-07 00:25 36.14460 -88.29113 36033 ft 326 kts 265°
2026-05-07 00:25 36.14448 -88.34726 36027 ft 325 kts 265°
2026-05-07 00:26 36.14433 -88.40322 36028 ft 325 kts 265°
2026-05-07 00:26 36.14416 -88.45917 36028 ft 325 kts 265°
2026-05-07 00:27 36.14396 -88.51522 36028 ft 325 kts 265°
2026-05-07 00:27 36.14373 -88.57126 36073 ft 325 kts 265°
2026-05-07 00:28 36.14349 -88.62725 36069 ft 326 kts 265°
2026-05-07 00:28 36.14321 -88.68333 36062 ft 326 kts 265°
2026-05-07 00:29 36.14290 -88.73931 36057 ft 326 kts 265°
2026-05-07 00:30 36.14223 -88.85146 36048 ft 326 kts 265°
2026-05-07 00:30 36.14185 -88.90717 36049 ft 326 kts 265°
2026-05-07 00:31 36.14144 -88.96326 36049 ft 326 kts 265°
2026-05-07 00:31 36.14101 -89.01951 36051 ft 327 kts 265°
2026-05-07 00:32 36.14063 -89.06628 36051 ft 327 kts 265°
2026-05-07 00:32 36.14015 -89.12262 36044 ft 327 kts 265°
2026-05-07 00:33 36.13964 -89.17900 36043 ft 328 kts 265°
2026-05-07 00:33 36.13911 -89.23533 36044 ft 328 kts 265°
2026-05-07 00:34 36.13855 -89.29176 36041 ft 328 kts 265°
2026-05-07 00:34 36.13796 -89.34827 36039 ft 328 kts 265°
2026-05-07 00:35 36.13734 -89.40471 36037 ft 328 kts 265°
2026-05-07 00:35 36.13670 -89.46089 36037 ft 328 kts 265°
2026-05-07 00:36 36.13603 -89.51742 36041 ft 329 kts 265°
2026-05-07 00:36 36.13534 -89.57407 36043 ft 329 kts 264°
2026-05-07 00:37 36.13461 -89.63074 36045 ft 329 kts 264°
2026-05-07 00:37 36.13386 -89.68740 36049 ft 329 kts 264°
2026-05-07 00:38 36.13309 -89.74366 36054 ft 329 kts 264°
2026-05-07 00:38 36.13229 -89.80041 36054 ft 330 kts 264°
2026-05-07 00:39 36.13146 -89.85713 36057 ft 330 kts 264°
2026-05-07 00:39 36.13060 -89.91392 36059 ft 330 kts 264°
2026-05-07 00:40 36.12971 -89.97081 36062 ft 330 kts 264°
2026-05-07 00:40 36.12880 -90.02727 36063 ft 330 kts 264°
2026-05-07 00:41 36.12786 -90.08411 36063 ft 330 kts 264°
2026-05-07 00:41 36.12688 -90.14100 36060 ft 330 kts 264°
2026-05-07 00:42 36.12586 -90.19784 36056 ft 330 kts 264°
2026-05-07 00:42 36.12482 -90.25419 36048 ft 330 kts 264°
2026-05-07 00:43 36.12377 -90.31096 36049 ft 330 kts 264°
2026-05-07 00:43 36.12269 -90.36777 36044 ft 330 kts 264°
2026-05-07 00:44 36.12160 -90.42443 36043 ft 330 kts 264°
2026-05-07 00:44 36.12047 -90.48123 36045 ft 330 kts 264°
2026-05-07 00:45 36.11932 -90.53791 36057 ft 329 kts 263°
2026-05-07 00:45 36.11814 -90.59453 36056 ft 329 kts 263°
2026-05-07 00:46 36.11694 -90.65089 36062 ft 329 kts 263°
2026-05-07 00:46 36.11571 -90.70745 36062 ft 329 kts 263°
2026-05-07 00:47 36.11445 -90.76396 36066 ft 329 kts 263°
2026-05-07 00:47 36.11317 -90.82049 36077 ft 328 kts 263°
2026-05-07 00:48 36.11186 -90.87699 36075 ft 328 kts 263°
2026-05-07 00:48 36.11048 -90.93320 36074 ft 327 kts 262°
2026-05-07 00:49 36.10477 -90.98871 36069 ft 325 kts 257°
2026-05-07 00:49 36.09693 -91.04370 36071 ft 324 kts 257°
2026-05-07 00:50 36.08866 -91.09856 36073 ft 324 kts 257°
2026-05-07 00:50 36.08038 -91.15332 36071 ft 324 kts 257°
2026-05-07 00:51 36.07218 -91.20785 36069 ft 324 kts 257°
2026-05-07 00:51 36.06393 -91.26272 36068 ft 324 kts 257°
2026-05-07 00:52 36.05569 -91.31746 36063 ft 324 kts 257°
2026-05-07 00:52 36.04740 -91.37224 36063 ft 324 kts 257°
2026-05-07 00:53 36.03909 -91.42701 36071 ft 324 kts 257°
2026-05-07 00:53 36.03077 -91.48167 36064 ft 324 kts 257°
2026-05-07 00:54 36.02242 -91.53631 36070 ft 324 kts 257°
2026-05-07 00:54 36.01411 -91.59055 36072 ft 323 kts 256°
2026-05-07 00:55 36.00572 -91.64508 36066 ft 323 kts 256°
2026-05-07 00:55 35.99731 -91.69967 36074 ft 323 kts 256°
2026-05-07 00:56 35.98888 -91.75416 36071 ft 323 kts 256°
2026-05-07 00:56 35.98048 -91.80829 36075 ft 323 kts 256°
2026-05-07 00:57 35.97200 -91.86271 36075 ft 323 kts 256°
2026-05-07 00:57 35.96351 -91.91710 36077 ft 322 kts 256°
2026-05-07 00:58 35.95502 -91.97134 36074 ft 322 kts 256°
2026-05-07 00:58 35.94650 -92.02555 36078 ft 322 kts 256°
2026-05-07 00:59 35.93367 -92.10682 36081 ft 321 kts 256°
2026-05-07 01:00 35.92510 -92.16095 36074 ft 321 kts 256°
2026-05-07 01:00 35.91658 -92.21462 36076 ft 321 kts 256°
2026-05-07 01:01 35.90799 -92.26861 36081 ft 320 kts 256°
2026-05-07 01:01 35.89936 -92.32261 36074 ft 320 kts 256°
2026-05-07 01:02 35.89072 -92.37652 36072 ft 321 kts 256°
2026-05-07 01:02 35.88210 -92.43022 36073 ft 320 kts 256°
2026-05-07 01:03 35.87340 -92.48413 36073 ft 320 kts 256°
2026-05-07 01:03 35.86468 -92.53808 36074 ft 321 kts 256°
2026-05-07 01:04 35.85593 -92.59204 36069 ft 321 kts 256°
2026-05-07 01:04 35.84715 -92.64599 36068 ft 321 kts 256°
2026-05-07 01:05 35.83834 -92.70004 36062 ft 321 kts 256°
2026-05-07 01:05 35.82957 -92.75361 36061 ft 320 kts 256°
2026-05-07 01:06 35.82074 -92.80743 36066 ft 320 kts 256°
2026-05-07 01:06 35.81190 -92.86115 36060 ft 320 kts 256°
2026-05-07 01:07 35.80301 -92.91500 36055 ft 320 kts 256°
2026-05-07 01:07 35.79411 -92.96877 36053 ft 321 kts 256°
2026-05-07 01:08 35.78515 -93.02267 36055 ft 321 kts 256°
2026-05-07 01:08 35.77620 -93.07642 36061 ft 320 kts 256°
2026-05-07 01:09 35.76723 -93.13016 36058 ft 320 kts 256°
2026-05-07 01:09 35.75828 -93.18358 36052 ft 320 kts 256°
2026-05-07 01:10 35.74923 -93.23742 36061 ft 321 kts 256°
2026-05-07 01:10 35.74016 -93.29122 36055 ft 320 kts 256°
2026-05-07 01:11 35.73116 -93.34466 36057 ft 320 kts 256°
2026-05-07 01:11 35.72209 -93.39817 36060 ft 319 kts 255°
2026-05-07 01:12 35.71298 -93.45180 36055 ft 320 kts 255°
2026-05-07 01:12 35.70386 -93.50532 36059 ft 320 kts 255°
2026-05-07 01:13 35.69469 -93.55895 36058 ft 321 kts 255°
2026-05-07 01:13 35.68553 -93.61244 36057 ft 321 kts 255°
2026-05-07 01:14 35.67631 -93.66609 36058 ft 321 kts 255°
2026-05-07 01:14 35.66705 -93.71987 36051 ft 321 kts 255°
2026-05-07 01:15 35.65774 -93.77369 36065 ft 321 kts 255°
2026-05-07 01:15 35.64848 -93.82707 36073 ft 321 kts 255°
2026-05-07 01:16 35.63916 -93.88074 36070 ft 321 kts 255°
2026-05-07 01:16 35.62983 -93.93435 36077 ft 321 kts 255°
2026-05-07 01:17 35.62046 -93.98799 36071 ft 321 kts 255°
2026-05-07 01:17 35.61103 -94.04179 36072 ft 322 kts 255°
2026-05-07 01:18 35.60317 -94.08655 36072 ft 322 kts 255°
2026-05-07 01:18 35.59368 -94.14043 36071 ft 322 kts 255°
2026-05-07 01:19 35.58417 -94.19430 36073 ft 322 kts 255°
2026-05-07 01:19 35.57469 -94.24783 36068 ft 322 kts 255°
2026-05-07 01:20 35.56514 -94.30161 36070 ft 322 kts 255°
2026-05-07 01:20 35.55556 -94.35541 36064 ft 322 kts 255°
2026-05-07 01:21 35.54595 -94.40926 36069 ft 323 kts 255°
2026-05-07 01:21 35.53631 -94.46314 36067 ft 323 kts 255°
2026-05-07 01:22 35.52663 -94.51705 36070 ft 323 kts 255°
2026-05-07 01:22 35.51694 -94.57089 36070 ft 323 kts 255°
2026-05-07 01:23 35.50727 -94.62447 36075 ft 323 kts 255°
2026-05-07 01:23 35.49750 -94.67841 36071 ft 324 kts 255°
2026-05-07 01:24 35.48770 -94.73241 36073 ft 324 kts 255°
2026-05-07 01:24 35.47788 -94.78639 36071 ft 324 kts 255°
2026-05-07 01:25 35.46805 -94.84032 36072 ft 324 kts 255°
2026-05-07 01:25 35.45817 -94.89431 36074 ft 324 kts 255°
2026-05-07 01:26 35.44833 -94.94796 36075 ft 324 kts 255°
2026-05-07 01:26 35.43840 -95.00197 36074 ft 324 kts 255°
2026-05-07 01:27 35.42844 -95.05596 36070 ft 325 kts 255°
2026-05-07 01:27 35.41844 -95.11005 36068 ft 325 kts 255°
2026-05-07 01:28 35.40842 -95.16411 36066 ft 325 kts 255°
2026-05-07 01:28 35.39843 -95.21787 36068 ft 325 kts 255°
2026-05-07 01:29 35.38836 -95.27189 36072 ft 325 kts 254°
2026-05-07 01:29 35.37826 -95.32596 36070 ft 325 kts 254°
2026-05-07 01:30 35.36821 -95.37962 36079 ft 325 kts 254°
2026-05-07 01:30 35.35806 -95.43364 36079 ft 325 kts 254°
2026-05-07 01:31 35.34787 -95.48774 36086 ft 325 kts 254°
2026-05-07 01:31 35.33769 -95.54171 36086 ft 325 kts 254°
2026-05-07 01:32 35.32745 -95.59575 36087 ft 325 kts 254°
2026-05-07 01:32 35.31719 -95.64982 36089 ft 326 kts 254°
2026-05-07 01:33 35.30691 -95.70382 36085 ft 326 kts 254°
2026-05-07 01:33 35.29660 -95.75784 36086 ft 326 kts 254°
2026-05-07 01:34 35.28632 -95.81159 36090 ft 326 kts 254°
2026-05-07 01:34 35.27595 -95.86564 36088 ft 326 kts 254°
2026-05-07 01:35 35.26554 -95.91982 36083 ft 326 kts 254°
2026-05-07 01:35 35.25511 -95.97391 36084 ft 326 kts 254°
2026-05-07 01:36 35.24467 -96.02796 36088 ft 326 kts 254°
2026-05-07 01:36 35.23419 -96.08203 36087 ft 326 kts 254°
2026-05-07 01:37 35.22370 -96.13604 36084 ft 326 kts 254°
2026-05-07 01:37 35.21389 -96.19042 36084 ft 328 kts 257°
2026-05-07 01:38 35.21214 -96.24620 36083 ft 335 kts 267°
2026-05-07 01:38 35.21738 -96.30317 36087 ft 338 kts 269°
2026-05-07 01:39 35.22403 -96.36026 36090 ft 339 kts 270°
2026-05-07 01:39 35.23074 -96.41728 36091 ft 339 kts 269°
2026-05-07 01:40 35.23725 -96.47425 36089 ft 338 kts 269°
2026-05-07 01:40 35.24363 -96.53131 36087 ft 338 kts 269°
2026-05-07 01:41 35.24995 -96.58835 36092 ft 338 kts 269°
2026-05-07 01:41 35.25624 -96.64538 36092 ft 338 kts 269°
2026-05-07 01:42 35.26251 -96.70236 36092 ft 338 kts 269°
2026-05-07 01:42 35.26873 -96.75904 36092 ft 338 kts 269°
2026-05-07 01:43 35.27495 -96.81603 36098 ft 338 kts 269°
2026-05-07 01:43 35.28114 -96.87299 36102 ft 338 kts 269°
2026-05-07 01:44 35.28730 -96.92999 36103 ft 338 kts 269°
2026-05-07 01:44 35.29343 -96.98694 36102 ft 338 kts 269°
2026-05-07 01:45 35.29951 -97.04362 36102 ft 338 kts 269°
2026-05-07 01:45 35.30560 -97.10073 36099 ft 338 kts 269°
2026-05-07 01:46 35.31166 -97.15779 36099 ft 338 kts 269°
2026-05-07 01:46 35.31770 -97.21485 36092 ft 337 kts 269°
2026-05-07 01:47 35.32370 -97.27187 36093 ft 338 kts 269°
2026-05-07 01:47 35.32965 -97.32860 36092 ft 338 kts 269°
2026-05-07 01:48 35.33561 -97.38582 36093 ft 337 kts 269°
2026-05-07 01:48 35.34153 -97.44283 36088 ft 337 kts 269°
2026-05-07 01:49 35.34738 -97.49948 36090 ft 337 kts 269°
2026-05-07 01:49 35.35325 -97.55659 36094 ft 337 kts 269°
2026-05-07 01:50 35.35783 -97.61346 36094 ft 333 kts 264°
2026-05-07 01:50 35.35796 -97.67007 36093 ft 331 kts 263°
2026-05-07 01:51 35.35722 -97.72618 36092 ft 331 kts 263°
2026-05-07 01:51 35.35628 -97.78263 36097 ft 331 kts 263°
2026-05-07 01:52 35.35537 -97.83899 36097 ft 331 kts 263°
2026-05-07 01:52 35.35448 -97.89549 36094 ft 331 kts 263°
2026-05-07 01:53 35.35359 -97.95194 36104 ft 331 kts 263°
2026-05-07 01:53 35.35268 -98.00827 36107 ft 331 kts 263°
2026-05-07 01:54 35.35173 -98.06459 36105 ft 331 kts 263°
2026-05-07 01:54 35.35076 -98.12053 36101 ft 331 kts 263°
2026-05-07 01:55 35.34977 -98.17691 36093 ft 331 kts 263°
2026-05-07 01:55 35.34874 -98.23325 36091 ft 331 kts 262°
2026-05-07 01:56 35.34769 -98.28959 36085 ft 331 kts 263°
2026-05-07 01:56 35.34662 -98.34571 36080 ft 331 kts 262°
2026-05-07 01:57 35.34552 -98.40209 36082 ft 331 kts 262°
2026-05-07 01:57 35.34439 -98.45857 36086 ft 331 kts 262°
2026-05-07 01:58 35.34323 -98.51498 36089 ft 331 kts 262°
2026-05-07 01:58 35.34206 -98.57103 36095 ft 331 kts 262°
2026-05-07 01:59 35.34085 -98.62741 36097 ft 331 kts 262°
2026-05-07 01:59 35.33961 -98.68391 36097 ft 332 kts 262°
2026-05-07 02:00 35.33835 -98.74039 36115 ft 332 kts 262°
2026-05-07 02:00 35.33706 -98.79702 36091 ft 332 kts 262°
2026-05-07 02:01 35.33574 -98.85357 36093 ft 332 kts 262°
2026-05-07 02:01 35.33440 -98.90980 36084 ft 332 kts 262°
2026-05-07 02:02 35.33302 -98.96647 36095 ft 333 kts 262°
2026-05-07 02:02 35.33162 -99.02309 36104 ft 333 kts 262°
2026-05-07 02:03 35.33018 -99.07989 36109 ft 333 kts 262°
2026-05-07 02:03 35.32872 -99.13659 36109 ft 334 kts 262°
2026-05-07 02:04 35.32724 -99.19308 36113 ft 334 kts 262°
2026-05-07 02:04 35.32573 -99.24996 36110 ft 334 kts 262°
2026-05-07 02:05 35.32419 -99.30670 36109 ft 334 kts 262°
2026-05-07 02:05 35.32288 -99.35403 36093 ft 334 kts 262°
2026-05-07 02:06 35.32129 -99.41098 36090 ft 335 kts 262°
2026-05-07 02:06 35.31967 -99.46802 36089 ft 335 kts 262°
2026-05-07 02:07 35.31802 -99.52477 36087 ft 335 kts 262°
2026-05-07 02:07 35.31549 -99.61051 36086 ft 336 kts 262°
2026-05-07 02:08 35.31377 -99.66769 36082 ft 336 kts 262°
2026-05-07 02:08 35.31202 -99.72501 36086 ft 337 kts 262°
2026-05-07 02:09 35.31023 -99.78233 36088 ft 337 kts 262°
2026-05-07 02:09 35.30842 -99.83976 36089 ft 338 kts 262°
2026-05-07 02:10 35.30660 -99.89686 36093 ft 338 kts 262°
2026-05-07 02:10 35.30472 -99.95453 36096 ft 339 kts 262°
2026-05-07 02:11 35.30282 -100.01215 36101 ft 339 kts 262°
2026-05-07 02:11 35.30090 -100.06991 36099 ft 339 kts 262°
2026-05-07 02:12 35.29894 -100.12774 36103 ft 340 kts 262°
2026-05-07 02:12 35.29696 -100.18522 36107 ft 340 kts 262°
2026-05-07 02:13 35.29493 -100.24328 36103 ft 341 kts 262°
2026-05-07 02:13 35.29288 -100.30132 36106 ft 341 kts 262°
2026-05-07 02:14 35.29080 -100.35936 36109 ft 342 kts 262°
2026-05-07 02:14 35.28869 -100.41767 36109 ft 342 kts 262°
2026-05-07 02:15 35.28656 -100.47562 36108 ft 343 kts 262°
2026-05-07 02:15 35.28439 -100.53396 36110 ft 343 kts 262°
2026-05-07 02:16 35.28218 -100.59238 36108 ft 343 kts 262°
2026-05-07 02:16 35.27995 -100.65081 36108 ft 344 kts 262°
2026-05-07 02:17 35.27770 -100.70886 36112 ft 344 kts 262°
2026-05-07 02:17 35.27541 -100.76736 36108 ft 344 kts 262°
2026-05-07 02:18 35.27309 -100.82599 36106 ft 344 kts 262°
2026-05-07 02:18 35.27073 -100.88469 36108 ft 345 kts 262°
2026-05-07 02:19 35.26834 -100.94340 36109 ft 345 kts 262°
2026-05-07 02:19 35.26593 -101.00213 36112 ft 346 kts 262°
2026-05-07 02:20 35.26350 -101.06048 36109 ft 346 kts 262°
2026-05-07 02:20 35.26102 -101.11939 36105 ft 346 kts 262°
2026-05-07 02:21 35.25851 -101.17823 36108 ft 346 kts 262°
2026-05-07 02:21 35.25598 -101.23703 36106 ft 346 kts 262°
2026-05-07 02:22 35.25343 -101.29547 36109 ft 346 kts 263°
2026-05-07 02:22 35.25084 -101.35438 36118 ft 346 kts 263°
2026-05-07 02:23 35.24822 -101.41322 36126 ft 346 kts 263°
2026-05-07 02:23 35.24557 -101.47212 36135 ft 346 kts 263°
2026-05-07 02:24 35.24291 -101.53061 36144 ft 346 kts 263°
2026-05-07 02:24 35.24021 -101.58941 36156 ft 346 kts 263°
2026-05-07 02:25 35.23747 -101.64836 36157 ft 346 kts 263°
2026-05-07 02:25 35.23488 -101.70729 36154 ft 346 kts 264°
2026-05-07 02:26 35.23343 -101.76592 36159 ft 347 kts 264°
2026-05-07 02:26 35.23236 -101.82502 36156 ft 347 kts 264°
2026-05-07 02:27 35.23123 -101.88392 36148 ft 346 kts 264°
2026-05-07 02:27 35.22998 -101.94280 36137 ft 346 kts 264°
2026-05-07 02:28 35.22867 -102.00167 36126 ft 346 kts 264°
2026-05-07 02:28 35.22733 -102.06052 36121 ft 346 kts 264°
2026-05-07 02:29 35.22597 -102.11890 36113 ft 346 kts 264°
2026-05-07 02:29 35.22458 -102.17766 36112 ft 345 kts 264°
2026-05-07 02:30 35.22316 -102.23642 36115 ft 345 kts 264°
2026-05-07 02:30 35.22171 -102.29517 36111 ft 345 kts 264°
2026-05-07 02:31 35.22023 -102.35389 36113 ft 345 kts 264°
2026-05-07 02:31 35.21872 -102.41259 36119 ft 345 kts 264°
2026-05-07 02:32 35.21720 -102.47103 36120 ft 345 kts 264°
2026-05-07 02:32 35.21564 -102.52975 36122 ft 345 kts 264°
2026-05-07 02:33 35.21405 -102.58849 36125 ft 345 kts 264°
2026-05-07 02:33 35.21242 -102.64740 36117 ft 346 kts 264°
2026-05-07 02:34 35.21078 -102.70581 36124 ft 346 kts 264°
2026-05-07 02:34 35.20910 -102.76467 36125 ft 346 kts 264°
2026-05-07 02:35 35.20739 -102.82359 36128 ft 347 kts 264°
2026-05-07 02:35 35.20565 -102.88255 36123 ft 347 kts 264°
2026-05-07 02:36 35.20388 -102.94129 36125 ft 347 kts 264°
2026-05-07 02:36 35.20209 -103.00030 36125 ft 348 kts 264°
2026-05-07 02:37 35.20026 -103.05945 36123 ft 348 kts 264°
2026-05-07 02:37 35.19840 -103.11872 36122 ft 349 kts 264°
2026-05-07 02:38 35.19650 -103.17818 36122 ft 349 kts 264°
2026-05-07 02:38 35.19457 -103.23758 36129 ft 350 kts 264°
2026-05-07 02:39 35.19262 -103.29681 36138 ft 351 kts 264°
2026-05-07 02:39 35.19062 -103.35657 36144 ft 351 kts 264°
2026-05-07 02:40 35.18859 -103.41639 36155 ft 352 kts 264°
2026-05-07 02:40 35.18653 -103.47626 36163 ft 353 kts 264°
2026-05-07 02:41 35.18445 -103.53607 36164 ft 354 kts 264°
2026-05-07 02:41 35.18233 -103.59631 36165 ft 355 kts 264°
2026-05-07 02:42 35.18042 -103.65681 36162 ft 356 kts 264°
2026-05-07 02:42 35.17860 -103.71745 36159 ft 357 kts 264°
2026-05-07 02:43 35.17675 -103.77828 36162 ft 358 kts 264°
2026-05-07 02:43 35.17484 -103.83926 36145 ft 360 kts 264°
2026-05-07 02:44 35.17288 -103.90046 36153 ft 361 kts 264°
2026-05-07 02:44 35.17088 -103.96202 36149 ft 362 kts 264°
2026-05-07 02:45 35.16884 -104.02364 36146 ft 364 kts 264°
2026-05-07 02:45 35.16678 -104.08532 36138 ft 366 kts 264°
2026-05-07 02:46 35.16465 -104.14775 36147 ft 368 kts 264°
2026-05-07 02:46 35.16249 -104.21039 36145 ft 369 kts 264°
2026-05-07 02:47 35.16031 -104.27283 36152 ft 370 kts 264°
2026-05-07 02:47 35.15807 -104.33582 36158 ft 371 kts 264°
2026-05-07 02:48 35.15578 -104.39913 36161 ft 373 kts 265°
2026-05-07 02:48 35.15347 -104.46256 36167 ft 374 kts 265°
2026-05-07 02:49 35.15110 -104.52623 36159 ft 375 kts 265°
2026-05-07 02:49 35.14870 -104.59002 36170 ft 376 kts 265°
2026-05-07 02:50 35.14625 -104.65402 36173 ft 377 kts 265°
2026-05-07 02:50 35.14379 -104.71779 36171 ft 378 kts 265°
2026-05-07 02:51 35.14127 -104.78209 36167 ft 379 kts 265°
2026-05-07 02:51 35.13914 -104.83572 36165 ft 380 kts 265°
2026-05-07 02:52 35.13654 -104.90031 36153 ft 381 kts 265°
2026-05-07 02:52 35.13390 -104.96499 36162 ft 382 kts 265°
2026-05-07 02:53 35.13124 -105.02956 36162 ft 382 kts 265°
2026-05-07 02:53 35.12852 -105.09460 36161 ft 383 kts 265°
2026-05-07 02:54 35.12576 -105.15973 36162 ft 384 kts 265°
2026-05-07 02:54 35.12296 -105.22498 36159 ft 385 kts 265°
2026-05-07 02:55 35.12012 -105.29030 36149 ft 386 kts 265°
2026-05-07 02:55 35.11726 -105.35550 36145 ft 387 kts 265°
2026-05-07 02:56 35.11433 -105.42127 36138 ft 387 kts 265°
2026-05-07 02:56 35.11137 -105.48697 36124 ft 387 kts 265°
2026-05-07 02:57 35.10839 -105.55242 36116 ft 388 kts 265°
2026-05-07 02:57 35.10535 -105.61816 36102 ft 388 kts 265°
2026-05-07 02:58 35.10228 -105.68404 36082 ft 389 kts 265°
2026-05-07 02:58 35.09916 -105.75004 36072 ft 389 kts 265°
2026-05-07 02:59 35.09600 -105.81622 36063 ft 390 kts 265°
2026-05-07 02:59 35.09282 -105.88209 36052 ft 392 kts 265°
2026-05-07 03:00 35.08956 -105.94876 36059 ft 394 kts 265°
2026-05-07 03:00 35.08624 -106.01585 36059 ft 397 kts 265°
2026-05-07 03:01 35.08290 -106.08286 36037 ft 397 kts 265°
2026-05-07 03:01 35.07950 -106.15020 36034 ft 398 kts 265°
2026-05-07 03:02 35.07605 -106.21777 36045 ft 399 kts 265°
2026-05-07 03:02 35.07257 -106.28502 36068 ft 400 kts 265°
2026-05-07 03:03 35.06903 -106.35286 36092 ft 401 kts 265°
2026-05-07 03:03 35.06543 -106.42103 36116 ft 402 kts 265°
2026-05-07 03:04 35.06180 -106.48918 36141 ft 403 kts 265°
2026-05-07 03:04 35.05811 -106.55762 36145 ft 404 kts 265°
2026-05-07 03:05 35.05437 -106.62620 36147 ft 406 kts 265°
2026-05-07 03:05 35.05059 -106.69506 36144 ft 407 kts 265°
2026-05-07 03:06 35.04675 -106.76413 36152 ft 408 kts 265°
2026-05-07 03:06 35.04340 -106.83299 36144 ft 410 kts 267°
2026-05-07 03:07 35.04165 -106.90275 36128 ft 411 kts 268°
2026-05-07 03:07 35.03998 -106.97231 36102 ft 412 kts 268°
2026-05-07 03:08 35.03822 -107.04257 36069 ft 414 kts 268°
2026-05-07 03:08 35.03640 -107.11298 36038 ft 415 kts 268°
2026-05-07 03:09 35.03455 -107.18290 36010 ft 416 kts 268°
2026-05-07 03:09 35.03263 -107.25357 35999 ft 417 kts 268°
2026-05-07 03:10 35.03067 -107.32448 36002 ft 418 kts 268°
2026-05-07 03:10 35.02867 -107.39554 36004 ft 420 kts 268°
2026-05-07 03:11 35.02661 -107.46685 36008 ft 421 kts 268°
2026-05-07 03:11 35.02451 -107.53836 36027 ft 422 kts 268°
2026-05-07 03:12 35.02237 -107.60982 36067 ft 424 kts 268°
2026-05-07 03:12 35.02016 -107.68187 36104 ft 425 kts 268°
2026-05-07 03:13 35.01791 -107.75405 36133 ft 426 kts 268°
2026-05-07 03:13 35.01561 -107.82649 36154 ft 428 kts 268°
2026-05-07 03:14 35.01327 -107.89873 36158 ft 429 kts 268°
2026-05-07 03:15 35.00965 -108.00832 36143 ft 430 kts 268°
2026-05-07 03:15 35.00719 -108.08098 36115 ft 431 kts 268°
2026-05-07 03:16 35.00466 -108.15430 36077 ft 433 kts 268°
2026-05-07 03:16 35.00208 -108.22780 36036 ft 434 kts 268°
2026-05-07 03:17 34.99946 -108.30119 35999 ft 435 kts 268°
2026-05-07 03:17 34.99679 -108.37505 35995 ft 437 kts 268°
2026-05-07 03:18 34.99405 -108.44935 35990 ft 438 kts 268°
2026-05-07 03:18 34.99125 -108.52380 35996 ft 440 kts 268°
2026-05-07 03:19 34.98841 -108.59838 36025 ft 441 kts 268°
2026-05-07 03:19 34.98553 -108.67274 36065 ft 442 kts 268°
2026-05-07 03:20 34.98258 -108.74768 36098 ft 443 kts 267°
2026-05-07 03:20 34.97957 -108.82301 36132 ft 444 kts 267°
2026-05-07 03:21 34.97651 -108.89837 36155 ft 445 kts 268°
2026-05-07 03:21 34.97341 -108.97382 36153 ft 446 kts 268°
2026-05-07 03:22 34.97024 -109.04952 36127 ft 447 kts 268°
2026-05-07 03:22 34.96655 -109.12489 36088 ft 449 kts 264°
2026-05-07 03:23 34.95001 -109.19820 36060 ft 450 kts 248°
2026-05-07 03:23 34.92463 -109.26831 36002 ft 452 kts 247°
2026-05-07 03:24 34.89888 -109.33833 35947 ft 453 kts 247°
2026-05-07 03:24 34.87329 -109.40810 35952 ft 453 kts 247°
2026-05-07 03:25 34.84756 -109.47827 35959 ft 454 kts 247°
2026-05-07 03:25 34.82173 -109.54857 35962 ft 455 kts 247°
2026-05-07 03:26 34.79585 -109.61888 35961 ft 455 kts 246°
2026-05-07 03:26 34.77004 -109.68880 35949 ft 456 kts 246°
2026-05-07 03:27 34.74399 -109.75922 35942 ft 457 kts 246°
2026-05-07 03:27 34.73097 -109.79433 35718 ft 456 kts 246°
2026-05-07 03:27 34.71790 -109.82957 35480 ft 457 kts 246°
2026-05-07 03:27 34.70477 -109.86494 35262 ft 459 kts 246°
2026-05-07 03:28 34.69159 -109.90041 35044 ft 461 kts 246°
2026-05-07 03:28 34.67835 -109.93601 34828 ft 463 kts 246°
2026-05-07 03:28 34.66521 -109.97131 34610 ft 465 kts 246°
2026-05-07 03:28 34.65187 -110.00711 34399 ft 467 kts 246°
2026-05-07 03:29 34.63840 -110.04322 34188 ft 469 kts 246°
2026-05-07 03:29 34.62486 -110.07946 33943 ft 471 kts 246°
2026-05-07 03:29 34.61130 -110.11573 33691 ft 473 kts 246°
2026-05-07 03:29 34.59764 -110.15221 33440 ft 475 kts 246°
2026-05-07 03:30 34.58390 -110.18889 33169 ft 477 kts 246°
2026-05-07 03:30 34.57015 -110.22554 32902 ft 479 kts 246°
2026-05-07 03:30 34.55629 -110.26243 32639 ft 481 kts 246°
2026-05-07 03:30 34.54235 -110.29949 32369 ft 482 kts 246°
2026-05-07 03:31 34.52845 -110.33641 31742 ft 482 kts 246°
2026-05-07 03:31 34.51450 -110.37344 31076 ft 482 kts 246°
2026-05-07 03:31 34.50090 -110.40947 30913 ft 470 kts 246°
2026-05-07 03:31 34.48737 -110.44528 30418 ft 466 kts 246°
2026-05-07 03:32 34.47390 -110.48091 29814 ft 465 kts 246°
2026-05-07 03:32 34.46042 -110.51648 29201 ft 463 kts 246°
2026-05-07 03:32 34.44701 -110.55184 28638 ft 460 kts 246°
2026-05-07 03:32 34.43367 -110.58699 28085 ft 457 kts 246°
2026-05-07 03:33 34.42040 -110.62191 27545 ft 454 kts 246°
2026-05-07 03:33 34.40723 -110.65654 27002 ft 452 kts 246°
2026-05-07 03:33 34.39411 -110.69101 26450 ft 449 kts 246°
2026-05-07 03:33 34.38101 -110.72538 25901 ft 448 kts 246°
2026-05-07 03:34 34.36800 -110.75948 25351 ft 446 kts 246°
2026-05-07 03:34 34.35367 -110.79263 24760 ft 445 kts 235°
2026-05-07 03:34 34.33428 -110.82135 24520 ft 434 kts 227°
2026-05-07 03:34 34.31408 -110.84786 24354 ft 422 kts 226°
2026-05-07 03:35 34.29419 -110.87345 24077 ft 414 kts 226°
2026-05-07 03:35 34.27483 -110.89833 23839 ft 407 kts 226°
2026-05-07 03:35 34.25525 -110.92353 23614 ft 406 kts 226°
2026-05-07 03:35 34.23617 -110.94811 23357 ft 405 kts 226°
2026-05-07 03:36 34.21695 -110.97288 23057 ft 400 kts 226°
2026-05-07 03:36 34.19795 -110.99736 22573 ft 398 kts 226°
2026-05-07 03:36 34.17897 -111.02183 22032 ft 397 kts 226°
2026-05-07 03:36 34.16006 -111.04618 21492 ft 396 kts 226°
2026-05-07 03:37 34.14124 -111.07040 21023 ft 394 kts 227°
2026-05-07 03:37 34.12276 -111.09417 20838 ft 382 kts 227°
2026-05-07 03:37 34.10481 -111.11724 20273 ft 384 kts 227°
2026-05-07 03:37 34.08649 -111.14078 19744 ft 384 kts 227°
2026-05-07 03:38 34.06839 -111.16402 19450 ft 377 kts 227°
2026-05-07 03:38 34.05047 -111.18700 19011 ft 375 kts 227°
2026-05-07 03:38 34.03261 -111.20991 18548 ft 374 kts 227°
2026-05-07 03:38 34.01484 -111.23269 18092 ft 371 kts 227°
2026-05-07 03:39 33.99721 -111.25527 17619 ft 368 kts 227°
2026-05-07 03:39 33.97963 -111.27776 17136 ft 365 kts 227°
2026-05-07 03:39 33.96227 -111.29996 16701 ft 362 kts 227°
2026-05-07 03:39 33.94534 -111.32160 16260 ft 359 kts 227°
2026-05-07 03:40 33.92830 -111.34336 15823 ft 356 kts 227°
2026-05-07 03:40 33.91132 -111.36504 15256 ft 357 kts 227°
2026-05-07 03:40 33.89448 -111.38653 15031 ft 347 kts 227°
2026-05-07 03:40 33.87734 -111.40638 14846 ft 337 kts 219°
2026-05-07 03:41 33.85887 -111.42337 14474 ft 333 kts 216°
2026-05-07 03:41 33.84002 -111.43960 14050 ft 333 kts 215°
2026-05-07 03:41 33.82753 -111.45026 13681 ft 333 kts 215°
2026-05-07 03:41 33.80870 -111.46633 13033 ft 330 kts 216°
2026-05-07 03:42 33.79025 -111.48211 12689 ft 319 kts 215°
2026-05-07 03:42 33.77252 -111.49731 12508 ft 306 kts 215°
2026-05-07 03:42 33.75557 -111.51185 12255 ft 294 kts 215°
2026-05-07 03:42 33.73897 -111.52610 11903 ft 293 kts 215°
2026-05-07 03:43 33.72243 -111.54030 11531 ft 292 kts 215°
2026-05-07 03:43 33.70589 -111.55449 11187 ft 290 kts 216°
2026-05-07 03:43 33.68949 -111.56856 10852 ft 289 kts 215°
2026-05-07 03:43 33.67314 -111.58257 10419 ft 291 kts 215°
2026-05-07 03:44 33.65640 -111.59693 9931 ft 296 kts 215°
2026-05-07 03:44 33.63985 -111.61099 9765 ft 285 kts 215°
2026-05-07 03:44 33.62396 -111.62433 9539 ft 272 kts 215°
2026-05-07 03:44 33.60860 -111.63719 9161 ft 266 kts 215°
2026-05-07 03:45 33.59372 -111.64964 8776 ft 264 kts 215°
2026-05-07 03:45 33.57878 -111.66213 8485 ft 260 kts 215°
2026-05-07 03:45 33.56396 -111.67453 8192 ft 258 kts 215°
2026-05-07 03:45 33.54934 -111.68684 7908 ft 255 kts 216°
2026-05-07 03:46 33.53486 -111.69906 7609 ft 254 kts 215°
2026-05-07 03:46 33.52045 -111.71123 7312 ft 252 kts 216°
2026-05-07 03:46 33.50613 -111.72331 7007 ft 250 kts 216°
2026-05-07 03:46 33.49223 -111.73504 6818 ft 243 kts 216°
2026-05-07 03:47 33.47882 -111.74635 6752 ft 228 kts 216°
2026-05-07 03:47 33.46731 -111.75876 6483 ft 218 kts 233°
2026-05-07 03:47 33.45928 -111.77350 6316 ft 206 kts 243°
2026-05-07 03:47 33.45320 -111.78827 6175 ft 189 kts 249°
2026-05-07 03:48 33.44869 -111.80228 5999 ft 173 kts 254°
2026-05-07 03:48 33.44535 -111.81577 5697 ft 166 kts 258°
2026-05-07 03:48 33.44282 -111.82916 5326 ft 164 kts 258°
2026-05-07 03:48 33.44106 -111.84205 5095 ft 150 kts 267°
2026-05-07 03:49 33.44065 -111.85417 4791 ft 143 kts 271°
2026-05-07 03:49 33.44066 -111.86595 4445 ft 140 kts 272°
2026-05-07 03:49 33.44070 -111.87751 4062 ft 138 kts 272°
2026-05-07 03:49 33.44072 -111.88904 3682 ft 138 kts 271°
2026-05-07 03:50 33.44073 -111.90045 3349 ft 136 kts 270°
2026-05-07 03:50 33.44073 -111.91178 2983 ft 136 kts 271°
2026-05-07 03:50 33.44074 -111.92302 2641 ft 135 kts 270°
2026-05-07 03:50 33.44075 -111.93425 2255 ft 136 kts 270°
2026-05-07 03:51 33.44076 -111.94551 1985 ft 135 kts 269°
2026-05-07 03:51 33.44077 -111.95678 1780 ft 136 kts 270°
2026-05-07 03:51 33.44079 -111.96802 1589 ft 136 kts 269°
2026-05-07 03:51 33.44080 -111.97936 1411 ft 137 kts 271°
2026-05-07 03:52 33.44082 -111.99061 1228 ft 134 kts 270°
2026-05-07 03:52 33.44085 -112.00119 1146 ft 117 kts 269°
2026-05-07 03:52 33.44083 -112.00845 1134 ft 39 kts 271°
2026-05-07 03:52 33.44015 -112.01103 1138 ft 19 kts 219°
2026-05-07 03:53 33.44002 -112.01113 1137 ft 0 kts 211°
2026-05-07 03:53 33.43963 -112.01131 1137 ft 16 kts 194°
2026-05-07 03:53 33.43901 -112.01059 1136 ft 13 kts 98°
2026-05-07 03:53 33.43900 -112.00958 1134 ft 9 kts 90°
2026-05-07 03:54 33.43900 -112.00906 1134 ft 5 kts 90°
2026-05-07 03:54 33.43903 -112.00789 1134 ft 19 kts 88°
2026-05-07 03:54 33.43905 -112.00635 1134 ft 18 kts 90°
2026-05-07 03:54 33.43904 -112.00485 1134 ft 21 kts 90°
2026-05-07 03:55 33.43895 -112.00397 1134 ft 11 kts 128°
2026-05-07 03:55 33.43787 -112.00379 1134 ft 17 kts 180°
2026-05-07 03:55 33.43715 -112.00322 1136 ft 14 kts 111°
2026-05-07 03:55 33.43688 -112.00245 1137 ft 7 kts 89°
2026-05-07 03:56 33.43688 -112.00233 1137 ft 0 kts 90°